This demonstration page uses our WeatherBlox Daily Observations layout. Learn more.

Left ArrowRight Arrow

41.55636, -103.73856

Hourly Observations for January 15, 2015

Temp ( °F °C ) Dew Point ( °F °C ) Humidity (%) Winds ( mph kmh ) Pressure ( in mb ) Visibility ( mi km ) Precip ( " mm )
12:53 am 00:53 Clear 16 -8.9 11 -11.7 80 80 NW 9 15 30.34 1027 10 16 0.00 0.00
1:53 am 01:53 Clear 16 -8.9 11 -11.7 80 80 NW 9 15 30.35 1028 10 16 0.00 0.00
2:53 am 02:53 Clear 16 -8.9 12 -11.1 84 84 WNW 9 15 30.35 1028 10 16 0.00 0.00
3:53 am 03:53 Clear 15 -9.4 11 -11.7 84 84 WNW 6 9 30.37 1029 10 16 0.00 0.00
4:53 am 04:53 Clear 13 -10.6 9 -12.8 84 84 WNW 8 13 30.38 1029 10 16 0.00 0.00
5:53 am 05:53 Clear 14 -10 10 -12.2 84 84 NW 7 11 30.41 1030 10 16 0.00 0.00
6:53 am 06:53 Clear 12 -11.1 9 -12.8 87 87 NW 8 13 30.43 1030 10 16 0.00 0.00
7:53 am 07:53 Sunny 16 -8.9 11 -11.7 80 80 NNW 6 9 30.44 1031 10 16 0.00 0.00
8:53 am 08:53 Sunny 20 -6.7 13 -10.6 74 74 WNW 12 19 30.45 1031 10 16 0.00 0.00
9:53 am 09:53 Sunny 22 -5.6 15 -9.4 75 75 WNW 8 13 30.46 1032 10 16 0.00 0.00
10:53 am 10:53 Sunny 27 -2.8 19 -7.2 72 72 NW 9 15 30.42 1030 10 16 0.00 0.00
11:53 am 11:53 Sunny 32 0 21 -6.1 64 64 NW 8 13 30.39 1029 10 16 0.00 0.00
12:53 pm 12:53 Sunny 34 1.1 24 -4.4 67 67 NW 7 11 30.35 1028 10 16 0.00 0.00
1:53 pm 13:53 Sunny 38 3.3 25 -3.9 60 60 Calm 30.31 1026 10 16 0.00 0.00
2:53 pm 14:53 Sunny 35 1.7 24 -4.4 64 64 SE 5 7 30.30 1026 10 16 0.00 0.00
3:53 pm 15:53 Sunny 30 -1.1 23 -5 75 75 E 5 7 30.30 1026 10 16 0.00 0.00
4:53 pm 16:53 Clear 26 -3.3 20 -6.7 78 78 E 3 6 30.30 1026 10 16 0.00 0.00
5:53 pm 17:53 Clear 24 -4.4 18 -7.8 77 77 Calm 30.30 1026 10 16 0.00 0.00
6:53 pm 18:53 Clear 22 -5.6 16 -8.9 78 78 NE 5 7 30.30 1026 10 16 0.00 0.00
7:53 pm 19:53 Clear 21 -6.1 15 -9.4 78 78 Calm 30.26 1025 10 16 0.00 0.00
8:53 pm 20:53 Clear 18 -7.8 14 -10 84 84 NE 8 13 30.25 1025 10 16 0.00 0.00
9:53 pm 21:53 Clear 17 -8.3 12 -11.1 80 80 NE 5 7 30.24 1024 10 16 0.00 0.00
10:53 pm 22:53 Clear 17 -8.3 11 -11.7 77 77 Calm 30.23 1024 10 16 0.00 0.00
11:53 pm 23:53 Clear 28 -2.2 16 -8.9 60 60 WNW 7 11 30.17 1022 10 16 0.00 0.00

Powered by AerisWeather